Regional Weather Roundup
Issued by NWS

Home | Current Version | Previous Version | Graphics & Text | Print | Product List | Glossary On
Versions: 1 2 3 4 5 6 7 8 9 10 11 12 13 14 15 16 17 18 19 20 21 22 23 24 25 26 27 28 29 30 31 32 33 34 35 36 37 38 39 40 41 42 43 44 45 46 47 48 49 50
000
ASUS43 KMPX 192001
RWRMN
WEATHER ROUNDUP FOR MINNESOTA
NATIONAL WEATHER SERVICE TWIN CITIES/CHANHASSEN MN
300 PM CDT THU OCT 19 2017


NOTE: "FAIR" INDICATES FEW OR NO CLOUDS BELOW 12,000 FEET WITH NO
SIGNIFICANT WEATHER AND/OR OBSTRUCTIONS TO VISIBILITY. N/A MEANS
CURRENT SKY AND/OR WEATHER CONDITIONS ARE NOT AVAILABLE.

MNZ060>063-068>070-192100-
   Twin Cities Metro

CITY           SKY/WX    TMP DP  RH WIND       PRES   REMARKS
TWIN CITIES    FAIR      73  34  23 S13G21    29.99F
ST PAUL        FAIR      72  36  26 S13       29.99F
CRYSTAL        FAIR      72  33  24 S17G24    29.96F
BLAINE         MOSUNNY   73  36  25 S12G17    29.97F
LAKEVILLE      FAIR      72  36  26 S10G18    30.00F
EDEN PRAIRIE   FAIR      73  35  25 S15G23    29.98F
SOUTH ST PAUL  FAIR      73  33  22 S14G22    29.99F
LAKE ELMO      FAIR      72  36  26 S16       30.00F
$$
MNZ001>005-007-008-013>017-022>024-027-028-192100-
   Northwest Minnesota

CITY           SKY/WX    TMP DP  RH WIND       PRES   REMARKS
BEMIDJI        FAIR      70  36  29 SW17      29.83F
HALLOCK        FAIR      64  30  27 S18       29.73F
ROSEAU         FAIR      66  36  32 S15G21    29.76F
WARROAD        FAIR      66  37  34 S12       29.78F
CROOKSTON      FAIR      68  36  30 S21       29.77F
FOSSTON        FAIR      70  36  28 S24       29.81F
DETROIT LAKES  FAIR      68  37  32 S18       29.84F
MOORHEAD       FAIR      73  37  27 S12G23    29.79F
PARK RAPIDS    LGT RAIN  70  37  29 SW17G30   29.86F
MAHNOMEN       FAIR      70  39  32 SW20      29.82S
$$
MNZ006-009>011-018-025>026-192100-
   North Central Minnesota

CITY           SKY/WX    TMP DP  RH WIND       PRES   REMARKS
BAUDETTE       FAIR      65  32  29 S13G22    29.80F
FLAG ISLAND    FAIR      55  34  44 SE10      29.77F
INTL FALLS     FAIR      65  27  23 VRB7      29.84F
WASKISH        FAIR      70  36  28 S7        29.81F
BIG FORK       FAIR      68  34  28 SW15      29.86F
LONGVILLE      FAIR      70  34  26 SW13      29.88F
GRAND RAPIDS   FAIR      69  34  27 S15       29.90F
CRANE LAKE     FAIR      63  25  23 S5        29.89F
ORR            FAIR      66  25  20 S12G17    29.85F
COOK           FAIR      64  30  27 SW10G18   29.89F
WALKER         FAIR      69  36  30 S12G21    29.85F
$$
MNZ012-019>021-037-192100-
   Northeast Minnesota

CITY           SKY/WX    TMP DP  RH WIND       PRES   REMARKS
DULUTH         FAIR      66  31  27 SW18G26   29.95F
ELY            FAIR      63  25  23 S10       29.91F
HIBBING        FAIR      66  31  27 SW9G20    29.90F
EVELETH        FAIR      65  10  11 SW12G17   29.92F
DULUTH HARBOR  FAIR      70  30  23 S15       29.94F
TWO HARBORS    FAIR      70  39  32 SW9       29.93F
GRAND MARAIS     N/A     52  40  63 W9        29.94F
G MARAIS ARPRT FAIR      61  25  25 S7        29.94F
$$
MNZ029>031-032-039>041-046>048-054>057-064-192100-
   West Central Minnesota

CITY           SKY/WX    TMP DP  RH WIND       PRES   REMARKS
FERGUS FALLS   FAIR      73  41  31 S20       29.84F
WHEATON        FAIR      75  37  25 S16G23    29.84F
MORRIS         FAIR      75  39  27 S25       29.84F
ALEXANDRIA     FAIR      72  37  28 S20G28    29.89F
ELBOW LAKE     FAIR      73  40  30 SW18G24   29.86F
WADENA         FAIR      70  39  32 S14       29.87F
GLENWOOD       FAIR      72  37  28 S22G28    29.90F
APPLETON       FAIR      75  37  25 S15G25    29.86F
BENSON         FAIR      75  37  25 SW23      29.89F
ORTONVILLE     FAIR      73  43  33 N16       29.85F
MADISON        FAIR      79  43  27 S16G22    29.87F
WILLMAR        FAIR      73  39  29 S13G22    29.93F
$$
MNZ033>034-036-042>043-049>051-058-059-192100-
   Central Minnesota

CITY           SKY/WX    TMP DP  RH WIND       PRES   REMARKS
ST CLOUD       FAIR      70  33  25 S23G29    29.93F
SAUK CENTRE    FAIR      72  37  28 S20G25    29.91F
PAYNESVILLE    FAIR      72  36  26 S14G23    29.93F
AITKIN         FAIR      66  34  30 S13       29.90F
PINE RIVER     FAIR      68  37  32 S13G20    29.92F
BRAINERD       FAIR      68  34  28 S15       29.91F
STAPLES        FAIR      70  34  26 S12G23    29.89F
LONG PRAIRIE   FAIR      70  37  30 SE9G23    29.91F
LITTLE FALLS   FAIR      70  21  16 S12G20    29.92F
LITCHFIELD     FAIR      73  37  27 S7        29.94F
BUFFALO        FAIR      71  32  24 S12G22    29.97F
MAPLE LAKE     FAIR      72  37  28 S12G21    29.96F
HUTCHINSON     FAIR      73  39  29 S14G22    29.96F
$$
MNZ037-044-045-052-053-192100-
   East Central Minnesota

CITY           SKY/WX    TMP DP  RH WIND       PRES   REMARKS
PRINCETON      FAIR      73  36  25 S16       29.95F
MORA           FAIR      68  34  28 S16       29.97F
CAMBRIDGE      FAIR      73  46  38 S14G20    29.96F
RUSH CITY      FAIR      70  33  25 S10G16    29.97F
MOOSE LAKE     FAIR      68  36  30 SW13      29.93F
HINCKLEY       FAIR      70  36  28 S14G20    29.96F
CLOQUET        FAIR      66  27  22 SW13G20   29.95F
MCGREGOR       FAIR      68  34  28 S13G18    29.92F
$$
MNZ071>073-080-081-089-090-097-098-192100-
   Southwest Minnesota

CITY           SKY/WX    TMP DP  RH WIND       PRES   REMARKS
MONTEVIDEO     FAIR      77  41  27 SW20G28   29.89F
GRANITE FALLS  FAIR      77  44  30 S18G28    29.92F
CANBY          FAIR      76  43  30 SW15G23   29.89F
MARSHALL       FAIR      75  45  34 S20G30    29.90F
REDWOOD FALLS  FAIR      74  39  28 S24       29.93F
OLIVIA         FAIR      72  41  33 S18G24    29.93F
PIPESTONE      FAIR      72  45  37 SW20G26   29.94F
WORTHINGTON    FAIR      75  45  34 S20G25    29.97F
JACKSON        FAIR      72  39  30 S15G21    30.00F
TRACY          FAIR      75  46  34 S20G26    29.92F
SLAYTON        FAIR      73   1   6 S20G29    29.96F
$$
MNZ065>067-074>077-082>085-091>093-192100-
   South Central Minnesota

CITY           SKY/WX    TMP DP  RH WIND       PRES   REMARKS
MANKATO        FAIR      73  34  23 S16G26    30.00F
NEW ULM        FAIR      70  36  28 S18G24    29.97F
ST JAMES       FAIR      72  36  26 S16G25    29.99F
FAIRMONT       FAIR      71  40  32 S20       30.01F
GLENCOE        FAIR      73  35  24 S14G23    29.97F
FARIBAULT      FAIR      72  34  25 S12G20    30.02F
OWATONNA       FAIR      72  37  28 S18       30.03F
WASECA         FAIR      72  34  25 S12G20    30.04F
$$
MNZ078>079-086>088-094>096-192100-
   Southeast Minnesota

CITY           SKY/WX    TMP DP  RH WIND       PRES   REMARKS
ROCHESTER      FAIR      71  36  27 S20       30.05F
RED WING       FAIR      73  27  17 S9        30.01F
STANTON        FAIR      74  32  22 S10G17    30.00F
DODGE CENTER   FAIR      72  30  21 S15       30.05F
WINONA         FAIR      73  36  25 S5        30.06S
AUSTIN         FAIR      70  34  26 S16       30.05F
PRESTON        FAIR      69  34  27 S15       30.07F
$$
ABBREVIATIONS USED IN REMARKS
   TC - TEMPERATURES IN CELSIUS
  WCI - WIND CHILL INDEX
   HX - HEAT INDEX
  VSB - VISIBILITY
$$




USA.gov is the U.S. government's official web portal to all federal, state and local government web resources and services.